Time,TemperatureF,DewpointF,PressureIn,WindDirection,WindDirectionDegrees,WindSpeedMPH,WindSpeedGustMPH,Humidity,HourlyPrecipIn,Conditions,Clouds,dailyrainin,SoftwareType,DateUTC
2015-05-04 00:03:00,57.4,55.4,29.70,ENE,67,1.7,-999.0,93,-99.99,,,0.00,Acu-Link.com,2015-05-04 05:03:00,
2015-05-04 00:18:00,57.0,55.0,29.69,NNE,22,0.0,-999.0,93,-99.99,,,0.00,Acu-Link.com,2015-05-04 05:18:00,
2015-05-04 00:33:00,56.8,54.8,29.69,NW,315,0.0,-999.0,93,-99.99,,,0.00,Acu-Link.com,2015-05-04 05:33:00,
2015-05-04 00:48:00,56.5,54.5,29.70,North,0,0.0,-999.0,93,-99.99,,,0.00,Acu-Link.com,2015-05-04 05:48:00,
2015-05-04 01:03:00,56.1,54.1,29.71,West,270,0.0,-999.0,93,-99.99,,,0.00,Acu-Link.com,2015-05-04 06:03:00,
2015-05-04 01:18:00,56.1,54.4,29.71,NNW,337,0.0,-999.0,94,-99.99,,,0.00,Acu-Link.com,2015-05-04 06:18:00,
2015-05-04 01:33:00,55.8,54.1,29.71,WNW,292,0.0,-999.0,94,-99.99,,,0.00,Acu-Link.com,2015-05-04 06:33:00,
2015-05-04 01:49:00,55.6,53.9,29.72,NNW,337,0.0,-999.0,94,-99.99,,,0.00,Acu-Link.com,2015-05-04 06:49:00,
2015-05-04 02:05:00,55.8,54.1,29.72,NNW,337,0.0,-999.0,94,-99.99,,,0.00,Acu-Link.com,2015-05-04 07:05:00,
2015-05-04 02:20:00,55.8,54.1,29.73,NW,315,0.0,-999.0,94,-99.99,,,0.00,Acu-Link.com,2015-05-04 07:20:00,
2015-05-04 02:35:00,55.2,53.5,29.73,West,270,0.0,-999.0,94,-99.99,,,0.00,Acu-Link.com,2015-05-04 07:35:00,
2015-05-04 02:50:00,54.9,53.2,29.73,NNW,337,0.0,-999.0,94,-99.99,,,0.00,Acu-Link.com,2015-05-04 07:50:00,
2015-05-04 03:05:00,54.5,52.8,29.73,ESE,112,0.0,-999.0,94,-99.99,,,0.00,Acu-Link.com,2015-05-04 08:05:00,
2015-05-04 03:21:00,54.0,52.6,29.72,ESE,112,0.0,-999.0,95,-99.99,,,0.00,Acu-Link.com,2015-05-04 08:21:00,
2015-05-04 03:36:00,54.0,52.6,29.75,SE,135,0.0,-999.0,95,-99.99,,,0.00,Acu-Link.com,2015-05-04 08:36:00,
2015-05-04 03:51:00,53.8,52.4,29.76,NNW,337,1.7,-999.0,95,-99.99,,,0.00,Acu-Link.com,2015-05-04 08:51:00,
2015-05-04 04:06:00,53.1,51.7,29.76,NW,315,0.0,-999.0,95,-99.99,,,0.00,Acu-Link.com,2015-05-04 09:06:00,
2015-05-04 04:22:00,52.2,50.8,29.77,NE,45,0.0,-999.0,95,-99.99,,,0.00,Acu-Link.com,2015-05-04 09:22:00,
2015-05-04 04:37:00,51.3,49.9,29.78,SW,225,0.0,-999.0,95,-99.99,,,0.00,Acu-Link.com,2015-05-04 09:37:00,
2015-05-04 04:52:00,50.4,49.0,29.78,NNE,22,0.0,-999.0,95,-99.99,,,0.00,Acu-Link.com,2015-05-04 09:52:00,
2015-05-04 05:08:00,49.6,48.2,29.79,NE,45,0.0,-999.0,95,-99.99,,,0.00,Acu-Link.com,2015-05-04 10:08:00,
2015-05-04 05:23:00,49.1,47.7,29.80,WNW,292,0.0,-999.0,95,-99.99,,,0.00,Acu-Link.com,2015-05-04 10:23:00,
2015-05-04 05:38:00,48.4,47.0,29.81,NE,45,0.0,-999.0,95,-99.99,,,0.00,Acu-Link.com,2015-05-04 10:38:00,
2015-05-04 05:54:00,47.8,46.4,29.82,ENE,67,0.0,-999.0,95,-99.99,,,0.00,Acu-Link.com,2015-05-04 10:54:00,
2015-05-04 06:09:00,47.7,46.3,29.83,ESE,112,0.0,-999.0,95,-99.99,,,0.00,Acu-Link.com,2015-05-04 11:09:00,
2015-05-04 06:24:00,47.8,46.4,29.84,ESE,112,0.0,-999.0,95,-99.99,,,0.00,Acu-Link.com,2015-05-04 11:24:00,
2015-05-04 06:39:00,49.1,47.7,29.84,NNW,337,1.7,-999.0,95,-99.99,,,0.00,Acu-Link.com,2015-05-04 11:39:00,
2015-05-04 06:54:00,49.8,48.4,29.85,North,0,2.2,-999.0,95,-99.99,,,0.00,Acu-Link.com,2015-05-04 11:54:00,
2015-05-04 07:09:00,50.4,49.0,29.86,NNW,337,3.2,-999.0,95,-99.99,,,0.01,Acu-Link.com,2015-05-04 12:09:00,
2015-05-04 07:24:00,51.4,49.4,29.87,NW,315,4.2,-999.0,93,-99.99,,,0.01,Acu-Link.com,2015-05-04 12:24:00,
2015-05-04 07:42:00,51.8,49.6,29.88,North,0,2.7,-999.0,92,-99.99,,,0.01,Acu-Link.com,2015-05-04 12:42:00,
2015-05-04 07:57:00,52.7,49.5,29.89,NNW,337,2.7,-999.0,89,-99.99,,,0.01,Acu-Link.com,2015-05-04 12:57:00,
2015-05-04 08:12:00,53.6,49.5,29.90,NW,315,4.2,-999.0,86,-99.99,,,0.01,Acu-Link.com,2015-05-04 13:12:00,
2015-05-04 08:27:00,54.9,49.2,29.91,NNW,337,3.2,-999.0,81,-99.99,,,0.01,Acu-Link.com,2015-05-04 13:27:00,
2015-05-04 08:42:00,56.3,49.2,29.91,NW,315,3.7,-999.0,77,-99.99,,,0.01,Acu-Link.com,2015-05-04 13:42:00,
2015-05-04 08:58:00,58.6,49.2,29.91,NNW,337,2.7,-999.0,71,-99.99,,,0.01,Acu-Link.com,2015-05-04 13:58:00,
2015-05-04 09:13:00,60.8,47.3,29.91,WNW,292,2.7,-999.0,61,-99.99,,,0.01,Acu-Link.com,2015-05-04 14:13:00,
2015-05-04 09:54:00,63.1,47.1,29.93,NNW,337,4.2,-999.0,56,-99.99,,,0.01,Acu-Link.com,2015-05-04 14:54:00,
2015-05-04 10:10:00,63.3,43.8,29.94,West,270,3.7,-999.0,49,-99.99,,,0.01,Acu-Link.com,2015-05-04 15:10:00,
2015-05-04 10:25:00,63.3,42.2,29.94,ENE,67,7.8,-999.0,46,-99.99,,,0.01,Acu-Link.com,2015-05-04 15:25:00,
2015-05-04 10:40:00,64.2,41.8,29.95,NNW,337,4.2,-999.0,44,-99.99,,,0.01,Acu-Link.com,2015-05-04 15:40:00,
2015-05-04 10:55:00,64.8,42.4,29.95,NW,315,4.2,-999.0,44,-99.99,,,0.01,Acu-Link.com,2015-05-04 15:55:00,
2015-05-04 11:14:00,66.4,42.6,29.96,WNW,292,5.8,-999.0,42,-99.99,,,0.01,Acu-Link.com,2015-05-04 16:14:00,
2015-05-04 11:31:00,66.9,43.7,29.96,NNW,337,4.7,-999.0,43,-99.99,,,0.01,Acu-Link.com,2015-05-04 16:31:00,
2015-05-04 11:46:00,67.1,41.3,29.97,NNE,22,4.7,-999.0,39,-99.99,,,0.01,Acu-Link.com,2015-05-04 16:46:00,
2015-05-04 12:03:00,66.9,39.8,29.98,NNW,337,5.8,-999.0,37,-99.99,,,0.01,Acu-Link.com,2015-05-04 17:03:00,
2015-05-04 12:21:00,67.3,38.0,29.98,West,270,3.7,-999.0,34,-99.99,,,0.01,Acu-Link.com,2015-05-04 17:21:00,
2015-05-04 12:36:00,67.5,41.7,29.98,NE,45,3.7,-999.0,39,-99.99,,,0.01,Acu-Link.com,2015-05-04 17:36:00,
2015-05-04 12:51:00,67.3,38.0,29.97,East,90,2.7,-999.0,34,-99.99,,,0.01,Acu-Link.com,2015-05-04 17:51:00,
2015-05-04 13:06:00,67.6,38.2,29.97,NNW,337,3.7,-999.0,34,-99.99,,,0.01,Acu-Link.com,2015-05-04 18:06:00,
2015-05-04 13:21:00,68.7,39.9,29.97,NW,315,4.2,-999.0,35,-99.99,,,0.01,Acu-Link.com,2015-05-04 18:21:00,
2015-05-04 13:37:00,69.1,37.2,29.98,NW,315,3.7,-999.0,31,-99.99,,,0.01,Acu-Link.com,2015-05-04 18:37:00,
2015-05-04 13:53:00,71.4,40.0,29.98,WNW,292,6.3,-999.0,32,-99.99,,,0.01,Acu-Link.com,2015-05-04 18:53:00,
2015-05-04 14:08:00,70.0,38.8,29.98,NNW,337,3.7,-999.0,32,-99.99,,,0.01,Acu-Link.com,2015-05-04 19:08:00,
2015-05-04 14:23:00,70.0,38.0,29.98,NE,45,3.2,-999.0,31,-99.99,,,0.01,Acu-Link.com,2015-05-04 19:23:00,
2015-05-04 14:38:00,70.7,36.9,29.98,NNW,337,6.3,-999.0,29,-99.99,,,0.01,Acu-Link.com,2015-05-04 19:38:00,
2015-05-04 14:53:00,72.0,37.1,29.98,SSW,202,4.7,-999.0,28,-99.99,,,0.01,Acu-Link.com,2015-05-04 19:53:00,
2015-05-04 15:09:00,70.7,36.9,29.98,NNW,337,2.2,-999.0,29,-99.99,,,0.01,Acu-Link.com,2015-05-04 20:09:00,
2015-05-04 15:24:00,70.9,37.1,29.98,North,0,3.7,-999.0,29,-99.99,,,0.01,Acu-Link.com,2015-05-04 20:24:00,
2015-05-04 15:39:00,70.3,34.7,29.98,NNE,22,1.7,-999.0,27,-99.99,,,0.01,Acu-Link.com,2015-05-04 20:39:00,
2015-05-04 15:54:00,70.5,34.9,29.97,NNW,337,3.7,-999.0,27,-99.99,,,0.01,Acu-Link.com,2015-05-04 20:54:00,
2015-05-04 16:09:00,72.1,36.3,29.97,NE,45,2.2,-999.0,27,-99.99,,,0.01,Acu-Link.com,2015-05-04 21:09:00,
2015-05-04 16:24:00,70.5,35.8,29.98,NW,315,3.2,-999.0,28,-99.99,,,0.01,Acu-Link.com,2015-05-04 21:24:00,
2015-05-04 16:39:00,69.4,34.9,29.98,NNE,22,3.7,-999.0,28,-99.99,,,0.01,Acu-Link.com,2015-05-04 21:39:00,
2015-05-04 16:55:00,69.4,34.0,29.98,North,0,0.0,-999.0,27,-99.99,,,0.01,Acu-Link.com,2015-05-04 21:55:00,
2015-05-04 17:11:00,70.5,34.0,29.98,South,180,2.7,-999.0,26,-99.99,,,0.01,Acu-Link.com,2015-05-04 22:11:00,
2015-05-04 17:26:00,69.8,35.2,29.98,North,0,1.7,-999.0,28,-99.99,,,0.01,Acu-Link.com,2015-05-04 22:26:00,
2015-05-04 17:41:00,69.4,36.6,29.99,North,0,2.7,-999.0,30,-99.99,,,0.01,Acu-Link.com,2015-05-04 22:41:00,
2015-05-04 17:57:00,69.6,35.9,29.99,South,180,1.7,-999.0,29,-99.99,,,0.01,Acu-Link.com,2015-05-04 22:57:00,
2015-05-04 18:12:00,69.8,35.2,30.00,East,90,0.0,-999.0,28,-99.99,,,0.01,Acu-Link.com,2015-05-04 23:12:00,